Location: ??????
(38.3184°N, 23.6932°E)
Time: 02:09:20
(UTC+00:00)

Meteor 1-11 - Pass Details

Date: 16 October 2021
Orbit: 841 x 886 km, 81.2° (Epoch: 04 December)

Event Time Altitude Azimuth Distance (km) Brightness Sun altitude
Rises 17:57:23 0° 348° (NNW) 3,404 7.6 -26.5°
Reaches altitude 10° 17:59:48 10° 347° (NNW) 2,468 6.9 -27.0°
Maximum altitude 18:05:22 74° 264° (W) 880 4.3 -28.1°
Enters shadow 18:06:51 50° 194° (SSW) 1,075 4.6 -28.3°
